Station MACM4 - 9075080 - Mackinaw City, MI Image indicating link to RSS feed of recent meteorological observations for station MACM4


Conditions at MACM4 as of
(11:30 am EDT)
1530 GMT on 06/16/2024:
     

Click on the graph icon in the table below to see a time series plot of the last five days of that observation.

5-day plot - Wind Direction Wind Direction (WDIR): S ( 180 deg true )
5-day plot - Wind Speed Wind Speed (WSPD): 8.9 kts
5-day plot - Wind Gust Wind Gust (GST): 11.1 kts
5-day plot - Atmospheric Pressure Atmospheric Pressure (PRES):29.91 in
5-day plot - Air Temperature Air Temperature (ATMP): 68.9 °F
5-day plot - Water Temperature Water Temperature (WTMP): 57.7 °F
5-day plot - Dew Point Dew Point (DEWP): 52.7 °F
5-day plot - Wind Speed at 10 Meters Wind Speed at 10 meters (WSPD10M): 9.7 kts
5-day plot - Wind Speed at 20 Meters Wind Speed at 20 meters (WSPD20M): 9.7 kts
5-day plot -  Wind Speed, Wind Gust and Atmospheric Pressure Combined plot of Wind Speed, Gust, and Air Pressure
NOS Water Level Observation Network Water Level
Previous observations
TIME
(EDT)
5-day plot - Wind Direction
WDIR
 
5-day plot - Wind Speed
WSPD
kts
5-day plot - Wind Gust
GST
kts
5-day plot - Wave Height
WVHT
ft
5-day plot - Dominant Wave Period
DPD
sec
5-day plot - Average Wave Period
APD
sec
5-day plot - Mean Wave Direction
MWD
 
5-day plot - Atmospheric Pressure
PRES
in
5-day plot - Pressure Tendency
PTDY
in
5-day plot - Air Temperature
ATMP
°F
5-day plot - Water Temperature
WTMP
°F
5-day plot - Dew Point
DEWP
°F
5-day plot - Salinity
SAL
psu
5-day plot - Visibility
VIS
nmi
5-day plot - Tide (above MLLW)
TIDE
ft
2024-06-16 11:24 am S 6.0 8.9----29.91- 69.4 56.8 51.8---
2024-06-16 11:18 am S 6.0 12.0----29.91-- 58.8----
2024-06-16 11:12 am S 11.1 15.0----29.91-- 58.8----
2024-06-16 11:06 am S 8.9 14.0----29.91-- 58.8----
2024-06-16 11:00 am S 8.9 12.0----29.91-0.05 67.8 59.0 52.0---
2024-06-16 10:54 am S 12.0 17.1----29.91- 67.6 59.0 52.0---
2024-06-16 10:48 am S 11.1 15.9----29.91-- 58.6----
2024-06-16 10:42 am S 12.0 17.1----29.91-- 59.2----
2024-06-16 10:36 amSSE 13.0 17.1----29.91-- 58.6----
2024-06-16 10:30 am-------29.91-- 58.1----
2024-06-16 10:24 am-------29.91-- 58.3----
2024-06-16 10:18 amSSE 11.1 15.0----29.91- 64.6 58.1 51.1---
2024-06-16 10:12 amSSE 9.9 14.0----29.91- 63.9 59.2 51.4---
2024-06-16 10:06 am SE 11.1 15.0----29.91- 63.7 59.2 51.4---
2024-06-16 10:00 amSSE 11.1 14.0----29.91-0.05- 59.4----
2024-06-16 09:54 amESE 8.9 11.1----29.91-- 59.0----
2024-06-16 09:48 am E 8.0 11.1----29.92- 58.5 59.2----
2024-06-16 09:42 am E 8.9 11.1----29.92- 58.1 57.7----
2024-06-16 09:36 am E 8.0 9.9----29.93- 58.1 58.8----
2024-06-16 09:30 am E 8.9 12.0----29.93- 57.9 58.1 51.6---
2024-06-16 09:24 am E 11.1 13.0----29.93- 57.7 58.1 51.3---
2024-06-16 09:18 am E 12.0 13.0----29.93-- 58.3----
2024-06-16 09:12 am E 12.0 13.0----29.94-- 58.8----
2024-06-16 09:06 am E 11.1 13.0----29.94-- 57.6----
2024-06-16 09:00 am E 9.9 12.0----29.94-0.03 57.6 59.4 49.8---
2024-06-16 08:54 am E 9.9 12.0----29.94- 57.4 59.5 49.6---
2024-06-16 08:48 am E 8.9 12.0----29.95- 57.4 57.7 49.5---
2024-06-16 08:42 am E 8.9 11.1----29.95- 57.4 58.3 49.1---
2024-06-16 08:36 am E 7.0 8.9----29.95- 57.4 58.3 49.3---
2024-06-16 08:30 am E 7.0 8.9----29.96- 57.4 58.5 48.7---
2024-06-16 08:24 am E 8.0 9.9----29.96- 57.4 57.9 48.0---
2024-06-16 08:18 am-------29.96- 57.2 59.4 48.4---
2024-06-16 08:12 am-------29.96- 57.4 59.0 48.6---
2024-06-16 08:06 am-------29.96- 57.2 58.8 48.6---
2024-06-16 08:00 amESE 9.9 12.0----29.96-0.03 57.2 58.8 48.0---
2024-06-16 07:54 amESE 11.1 12.0----29.95- 57.2 59.7 48.7---
2024-06-16 07:48 amESE 11.1 13.0----29.95- 57.2 58.5 47.8---
2024-06-16 07:42 amESE 12.0 13.0----29.95- 57.2 58.6 48.0---
2024-06-16 07:36 amESE 12.0 13.0----29.95- 57.2 58.6 48.2---
2024-06-16 07:30 amESE 12.0 13.0----29.95- 57.4 58.1 48.2---
2024-06-16 07:24 amESE 11.1 12.0----29.96- 57.6 57.2 48.2---
2024-06-16 07:18 amESE 11.1 12.0----29.96-- 59.9----
2024-06-16 07:12 amESE 9.9 12.0----29.96-- 57.9----
2024-06-16 07:06 am SE 11.1 12.0----29.96-- 59.9----
2024-06-16 07:00 amESE 12.0 14.0----29.96-- 58.5----
2024-06-16 06:54 am SE 11.1 15.0----29.96-- 60.1----
2024-06-16 06:48 amESE 12.0 13.0----29.96-- 60.4----
2024-06-16 06:42 amESE 12.0 13.0----29.96-- 59.9----
2024-06-16 06:36 amESE 12.0 15.0----29.96-- 60.1----
2024-06-16 06:30 amESE 14.0 15.0----29.96-- 60.6----
2024-06-16 06:24 amESE 14.0 15.0----29.96-- 58.8----
2024-06-16 06:18 amESE 14.0 15.0----29.96- 57.2 58.8 52.3---
2024-06-16 06:12 amESE 14.0 15.0----29.97- 57.2 58.3 51.6---
2024-06-16 06:06 amESE 13.0 15.0----29.97- 57.2 57.2 52.0---
2024-06-16 06:00 amESE 12.0 13.0----29.97-0.03- 59.5----
2024-06-16 05:54 amESE 11.1 12.0----29.97-- 57.0----
2024-06-16 05:48 am SE 8.9 12.0----29.97- 57.2 58.5 52.7---
2024-06-16 05:42 am SE 9.9 12.0----29.98- 57.6 60.6 52.5---
2024-06-16 05:36 amESE 9.9 12.0----29.97- 57.4 56.7 52.2---
2024-06-16 05:30 am SE 8.0 9.9----29.98- 58.6 60.4 50.4---
2024-06-16 05:24 am SE 7.0 8.0----29.98- 59.0 56.5 50.4---
2024-06-16 05:18 am SE 6.0 8.0----29.98-- 58.3----
2024-06-16 05:12 am SE 7.0 9.9----29.98-- 56.5----
2024-06-16 05:06 amSSE 8.0 9.9----29.98-- 56.5----
2024-06-16 05:00 amSSE 7.0 11.1----29.99-0.02- 58.6----
2024-06-16 04:54 amSSE 9.9 13.0----29.98-- 59.7----
2024-06-16 04:48 amSSE 9.9 14.0----29.98- 59.4 59.5 50.0---
2024-06-16 04:42 amSSE 11.1 14.0----29.98- 59.2 57.0 50.9---
2024-06-16 04:36 am S 12.0 14.0----29.99- 59.4 59.0 50.9---
2024-06-16 04:30 am S 11.1 14.0----29.99- 59.4 56.8 50.7---
2024-06-16 04:24 am S 12.0 14.0----29.99- 59.5 56.8 50.0---
2024-06-16 04:18 am S 11.1 14.0----30.00- 59.9 56.8 49.8---
2024-06-16 04:12 am S 11.1 14.0----30.00- 60.1 56.8 49.5---
2024-06-16 04:06 am S 11.1 12.0----30.00- 60.4 56.8 49.6---
2024-06-16 04:00 am S 11.1 14.0------ 60.8 57.0 48.7---
2024-06-16 03:54 am S 11.1 13.0------ 61.0 58.5 48.6---
2024-06-16 03:48 am S 11.1 12.0----30.00- 61.3 58.6 49.1---
2024-06-16 03:42 am S 11.1 13.0----30.00- 61.3 57.2 48.7---
2024-06-16 03:36 am S 12.0 15.0----30.00- 61.3 60.3 48.0---
2024-06-16 03:30 am S 11.1 14.0----30.00- 61.3 59.5 48.4---
2024-06-16 03:24 am S 12.0 13.0----30.00- 61.3 60.1 48.7---
2024-06-16 03:18 am S 12.0 15.0----30.00- 61.3 58.6 49.1---
2024-06-16 03:12 amSSE 11.1 14.0----30.00- 61.2 58.1 48.9---
2024-06-16 03:06 amSSE 11.1 14.0----30.00- 61.0 57.0 48.7---
2024-06-16 03:00 amSSE 11.1 14.0----30.00-0.01 60.8 57.0 48.6---
2024-06-16 02:54 amSSE 9.9 13.0----30.00- 60.8 57.4 49.5---
2024-06-16 02:48 amSSE 9.9 13.0----30.00- 60.8 57.0 49.5---
2024-06-16 02:42 am S 9.9 13.0----30.00- 60.8 57.0 50.0---
2024-06-16 02:36 amSSE 9.9 13.0----30.00- 60.8 60.1 49.5---
2024-06-16 02:30 amSSE 8.9 11.1----30.01- 60.8 57.7 50.0---
2024-06-16 02:24 amSSE 8.0 9.9----30.01- 60.3 58.3 50.7---
2024-06-16 02:18 amSSE 8.0 9.9----30.01- 59.7 59.7 51.4---
2024-06-16 02:12 am SE 8.0 9.9----30.01- 59.2 59.4 51.4---
2024-06-16 02:06 am SE 8.0 9.9----30.01- 59.0 57.9 51.3---
2024-06-16 02:00 am SE 7.0 8.9----30.01-0.01 58.5 58.6 51.8---
2024-06-16 01:54 am SE 7.0 8.0----30.01- 58.3 59.5 52.2---
2024-06-16 01:48 am SE 7.0 8.9----30.01-- 58.1----
2024-06-16 01:42 am SE 8.0 9.9----30.01-- 60.1----
2024-06-16 01:36 am SE 8.9 11.1----30.01-- 59.0----
2024-06-16 01:30 am SE 9.9 11.1------ 58.6 60.6 52.9---
2024-06-16 01:24 am SE 9.9 11.1------ 58.6 58.5 53.4---
2024-06-16 01:18 am--------- 58.8- 53.2---
2024-06-16 01:12 am--------- 58.8- 53.4---
2024-06-16 01:06 am--------- 59.0- 53.2---
2024-06-16 01:00 am SE 8.0 9.9----30.01-0.01 59.2 60.8 53.6---
2024-06-16 12:54 am SE 8.0 9.9----30.01- 59.0 57.9 54.1---
2024-06-16 12:48 amESE 9.9 12.0----30.01- 59.0 61.0 54.7---
2024-06-16 12:42 am SE 8.9 11.1----30.01- 59.2 60.4 54.3---
2024-06-16 12:36 am SE 8.9 12.0----30.01- 59.2 60.1 54.9---
2024-06-16 12:30 am SE 8.9 12.0----30.01- 59.4 61.0 54.3---
2024-06-16 12:24 am SE 9.9 12.0----30.01- 59.5 60.6 54.5---
2024-06-16 12:18 am SE 9.9 12.0----30.01-- 61.0----
2024-06-16 12:12 amESE 8.9 11.1----30.01-- 61.0----
2024-06-16 12:06 am SE 8.0 9.9----30.01-- 60.3----
2024-06-16 12:00 am-------30.01-0.02 62.1- 51.3---
2024-06-15 11:54 pm-------30.01- 62.1- 51.3---
2024-06-15 11:48 pmSSE 9.9 13.0----30.01- 62.6 61.0 51.3---
2024-06-15 11:42 pmSSE 11.1 15.9----30.01- 62.8 61.2 51.4---
2024-06-15 11:36 pmSSE 12.0 15.0----30.01- 63.0 60.6 50.9---
2024-06-15 11:30 pmSSE 11.1 15.0----30.01- 63.0 60.1 51.4---
2024-06-15 11:24 pmSSE 11.1 14.0----30.02- 63.0 59.9 51.8---
2024-06-15 11:18 pmSSE 9.9 14.0----30.02- 63.0 59.7 51.8---
2024-06-15 11:12 pmSSE 8.9 13.0----30.02- 62.8 61.0 52.3---
2024-06-15 11:06 pmSSE 12.0 15.0----30.02- 63.1 60.6 52.2---
2024-06-15 11:00 pmSSE 9.9 15.0----30.02-0.03 63.1 60.1 52.2---
2024-06-15 10:54 pmSSE 9.9 14.0----30.02- 63.0 61.3 52.3---
2024-06-15 10:48 pmSSE 9.9 14.0----30.03- 63.0 60.3----
2024-06-15 10:42 pmSSE 9.9 12.0----30.03- 62.6 61.2----
2024-06-15 10:36 pm S 8.0 9.9----30.03- 62.2 61.0----
2024-06-15 10:30 pm SE 7.0 9.9----30.03- 61.3 61.3 53.8---
2024-06-15 10:24 pmESE 8.0 8.9----30.03- 59.7 61.3 55.9---
2024-06-15 10:18 pmESE 8.9 9.9----30.03- 59.9 61.5 56.1---
2024-06-15 10:12 pmESE 8.9 9.9----30.03- 59.7 61.5 56.5---
2024-06-15 10:06 pmESE 9.9 12.0----30.03- 59.5 61.5 56.8---
2024-06-15 10:00 pmESE 11.1 12.0----30.03-0.04 59.4 61.5 57.0---
2024-06-15 09:54 pmESE 11.1 12.0----30.03- 59.4 61.5 57.6---
2024-06-15 09:48 pmESE 11.1 12.0----30.03- 59.4 61.7 57.4---
2024-06-15 09:42 pmESE 12.0 12.0----30.03- 59.4 61.7 57.0---
2024-06-15 09:36 pmESE 11.1 12.0----30.03- 59.4 61.7 57.0---
2024-06-15 09:30 pmESE 9.9 11.1----30.03-- 61.7----
2024-06-15 09:24 pm SE 9.9 12.0----30.03-- 61.7----
2024-06-15 09:18 pmESE 11.1 13.0----30.03- 59.5 61.7 57.2---
2024-06-15 09:12 pmESE 11.1 12.0----30.03- 59.4 61.7 57.0---
2024-06-15 09:06 pmESE 9.9 12.0----30.03- 59.2 61.7 57.0---
2024-06-15 09:00 pmESE 9.9 12.0----30.03-0.04 58.8 61.7 56.8---
2024-06-15 08:54 pmESE 11.1 12.0----30.03- 58.8 61.7 57.0---
2024-06-15 08:48 pmESE 11.1 12.0----30.03- 58.6 61.9 56.7---
2024-06-15 08:42 pmESE 11.1 13.0----30.03- 58.8 61.7 56.5---
2024-06-15 08:36 pmESE 12.0 13.0----30.04- 58.6 61.7 56.1---
2024-06-15 08:30 pmESE 11.1 13.0----30.04-- 61.7----
2024-06-15 08:24 pmESE 12.0 13.0----30.04-- 61.7----
2024-06-15 08:18 pmESE 11.1 13.0----30.05- 59.0 61.9 55.8---
2024-06-15 08:12 pmESE 12.0 13.0----30.05- 59.2 61.9 55.6---
2024-06-15 08:06 pmESE 11.1 13.0----30.05- 59.4 61.9 55.6---
2024-06-15 08:00 pmESE 11.1 12.0----30.05-0.04- 61.9----
2024-06-15 07:54 pm SE 11.1 12.0----30.05-- 61.9----
2024-06-15 07:48 pm-------30.05- 59.2 61.7 55.6---
2024-06-15 07:42 pm-------30.05- 59.0 61.9 55.6---
2024-06-15 07:36 pm-------30.06- 58.8 61.9 55.2---
2024-06-15 07:30 pmESE 9.9 13.0----30.06- 59.0 62.1----
2024-06-15 07:24 pmESE 11.1 12.0----30.06- 58.8 62.1----
2024-06-15 07:18 pmESE 11.1 13.0----30.06-- 62.1----
2024-06-15 07:12 pmESE 9.9 13.0----30.06-- 62.1----
2024-06-15 07:06 pmESE 11.1 13.0----30.06-- 62.1----
2024-06-15 07:00 pmESE 12.0 14.0----30.06-0.04 59.0 62.2 53.8---
2024-06-15 06:54 pmESE 12.0 14.0----30.06- 59.0 62.2 53.1---
2024-06-15 06:48 pmESE 13.0 14.0----30.06- 59.0 62.1 52.9---
2024-06-15 06:42 pmESE 13.0 15.0----30.06- 59.2 62.1 52.5---
2024-06-15 06:36 pmESE 12.0 13.0----30.06- 59.2 61.7 52.9---
2024-06-15 06:30 pmESE 9.9 11.1----30.06-- 61.5----
2024-06-15 06:24 pmESE 6.0 8.9----30.06-- 61.7----
2024-06-15 06:18 pmESE 8.9 12.0----30.06- 59.5 61.7 54.1---
2024-06-15 06:12 pmESE 9.9 11.1----30.07- 59.5 61.7 53.8---
2024-06-15 06:06 pmESE 9.9 12.0----30.07- 59.5 61.9 53.4---
2024-06-15 06:00 pmESE 12.0 14.0----30.07-0.05------
2024-06-15 05:54 pmESE 12.0 13.0----30.07-------
2024-06-15 05:48 pmESE 11.1 12.0----30.07-- 61.5----
2024-06-15 05:42 pmESE 12.0 14.0----30.08-- 61.7----
2024-06-15 05:36 pmESE 12.0 13.0----30.08-- 61.5----
2024-06-15 05:30 pmESE 11.1 13.0----30.08- 60.1- 52.0---
2024-06-15 05:24 pmESE 9.9 12.0----30.08- 59.9- 53.1---
2024-06-15 05:18 pmESE 9.9 11.1----30.08-- 61.3----
2024-06-15 05:12 pmESE 8.9 11.1----30.09-- 61.3----
2024-06-15 05:06 pmESE 8.9 11.1----30.09-- 61.3----
2024-06-15 05:00 pmESE 9.9 12.0----30.09-0.04- 61.3----
2024-06-15 04:54 pmESE 9.9 12.0----30.09-- 61.3----
2024-06-15 04:48 pm-------30.09- 60.1 61.3 52.9---
2024-06-15 04:42 pm-------30.09- 60.1 61.3 52.2---
2024-06-15 04:36 pm-------30.09- 60.1 61.3 53.6---
2024-06-15 04:30 pmESE 9.9 13.0----30.09- 60.1 61.3 53.4---
2024-06-15 04:24 pm SE 13.0 15.0----30.09- 60.1 61.3 53.2---
2024-06-15 04:18 pm SE 12.0 14.0----30.09- 60.1 61.3 53.8---
2024-06-15 04:12 pmESE 12.0 14.0----30.09- 59.9 61.3 53.1---
2024-06-15 04:06 pm SE 11.1 12.0----30.10- 60.3 61.2 53.8---
2024-06-15 04:00 pmESE 9.9 12.0----30.10-0.05- 61.2----
2024-06-15 03:54 pm SE 8.9 11.1----30.10-- 61.2----
2024-06-15 03:48 pm SE 8.9 11.1----30.09-- 61.2----
2024-06-15 03:42 pmESE 8.9 9.9----30.09-- 61.2----
2024-06-15 03:36 pmESE 8.9 12.0----30.10-- 61.2----
2024-06-15 03:30 pmESE 9.9 12.0----30.10- 60.1 61.2 54.0---
2024-06-15 03:24 pm E 9.9 12.0----30.10- 60.3 61.2 53.4---
2024-06-15 03:18 pm E 11.1 12.0----30.11- 60.3 61.2 53.4---
2024-06-15 03:12 pm E 8.9 12.0----30.11- 60.6 61.0 53.1---
2024-06-15 03:06 pm E 11.1 13.0----30.11- 60.8 61.0 52.3---
2024-06-15 03:00 pm E 11.1 13.0----30.12-0.05- 61.0----
2024-06-15 02:54 pmESE 8.9 12.0----30.12-- 61.0----
2024-06-15 02:48 pmESE 11.1 12.0----30.12-- 61.0----
2024-06-15 02:42 pmESE 8.9 11.1----30.12-- 61.0----
2024-06-15 02:36 pm E 8.0 9.9----30.12-- 61.0----
2024-06-15 02:30 pmESE 9.9 11.1------ 60.3 60.8 53.2---
2024-06-15 02:24 pmESE 8.9 11.1------ 60.1 60.8 53.1---
2024-06-15 02:18 pmESE 9.9 11.1----30.13-- 60.8----
2024-06-15 02:12 pmESE 9.9 11.1----30.13-- 60.6----
2024-06-15 02:06 pm SE 8.9 9.9----30.13-- 60.6----
2024-06-15 02:00 pm SE 8.9 11.1----30.14-0.03 60.1 60.6 52.2---
2024-06-15 01:54 pmESE 8.9 12.0----30.14- 59.7 60.6 52.3---
2024-06-15 01:48 pmESE 11.1 12.0----30.13-- 60.6----
2024-06-15 01:42 pmESE 12.0 14.0----30.14-- 60.6----
2024-06-15 01:36 pmESE 13.0 14.0----30.14-- 60.4----
2024-06-15 01:30 pmESE 13.0 15.0----30.14- 59.2 60.4 52.3---
2024-06-15 01:24 pmESE 14.0 15.0----30.14- 59.0 60.4 52.7---
2024-06-15 01:18 pmESE 12.0 15.0----30.14-------
2024-06-15 01:12 pmESE 12.0 14.0----30.15-------
2024-06-15 01:06 pmESE 9.9 13.0----30.15-------
2024-06-15 01:00 pmESE 12.0 12.0----30.15-0.02 59.2 60.3 52.7---
2024-06-15 12:54 pmESE 9.9 11.1----30.16- 59.2 60.3 53.1---
2024-06-15 12:48 pmESE 8.9 11.1----30.16- 59.4 60.3 52.3---
2024-06-15 12:42 pmESE 9.9 12.0----30.16- 59.7 60.3 51.8---
2024-06-15 12:36 pmESE 8.9 11.1----30.16- 59.7 60.3 51.6---
2024-06-15 12:30 pm E 9.9 12.0----30.16- 59.4 60.1 51.1---
2024-06-15 12:24 pm E 8.0 12.0----30.16- 59.4 60.1 51.3---
2024-06-15 12:18 pm E 9.9 13.0----30.17- 59.4 60.1 50.9---
2024-06-15 12:12 pm E 12.0 14.0----30.16- 59.2 60.1 50.2---
2024-06-15 12:06 pm E 11.1 14.0----30.17- 59.4 60.1 51.1---
2024-06-15 12:00 pm E 12.0 14.0----30.17- 59.9 60.3 49.5---
2024-06-15 11:54 am E 11.1 13.0----30.17- 59.7 60.1 48.9---